Location: Unspecified
(0.0000°N, 0.0000°E)
Time: 02:19:40
(UTC+00:00)

Kyokko - Pass Details

Date: 11 June 2023
Orbit: 634 x 3947 km, 65.4° (Epoch: 29 September)

Event Time Altitude Azimuth Distance (km) Brightness Sun altitude
Rises 04:21:12 0° 352° (N) 7,942 11.9 -22.5°
Reaches altitude 10° 04:27:25 10° 360° (N) 6,640 11.6 -21.1°
Maximum altitude 04:44:30 40° 62° (ENE) 3,425 10.4 -17.2°
Drops below altitude 10° 04:54:50 10° 127° (SE) 4,119 10.6 -14.9°
Sets 04:57:37 0° 135° (SE) 4,762 10.9 -14.2°
